Regional Weather Roundup
Issued by NWS Raleigh/Durham, NC

Home | Current Version | Previous Version | Text Only | Print | Product List | Glossary On
Versions: 1 2 3 4 5 6 7 8 9 10 11 12 13 14 15 16 17 18 19 20 21 22 23 24 25 26 27
000
ASUS42 KRAH 180810
RWRRAH
NORTH CAROLINA WEATHER ROUNDUP
NATIONAL WEATHER SERVICE RALEIGH NC
400 AM EDT FRI APR 18 2014

NOTE: "FAIR" INDICATES FEW OR NO CLOUDS BELOW 12,000 FEET WITH NO
SIGNIFICANT WEATHER AND/OR OBSTRUCTIONS TO VISIBILITY.

NCZ001-053-055-056-065-067-180900-
WESTERN NORTH CAROLINA

CITY           SKY/WX    TMP DP  RH WIND       PRES   REMARKS
ASHEVILLE      CLOUDY    40  32  73 CALM      30.38F
JEFFERSON      MOCLDY    40  21  45 CALM      30.37F
MORGANTON      CLOUDY    39  33  80 N3        30.44R
HICKORY        CLOUDY    41  35  79 CALM      30.38F
RUTHERFORDTON  CLOUDY    46  31  56 N5        30.39F
MOUNT AIRY     PTCLDY    45  37  75 NE8       30.39F
BOONE          MOCLDY    30  26  86 CALM      30.39R
$$

NCZ021-022-025-041-071-084-088-180900-
CENTRAL NORTH CAROLINA

CITY           SKY/WX    TMP DP  RH WIND       PRES   REMARKS
CHARLOTTE      CLOUDY    50  39  66 E5        30.38R
GREENSBORO     PTCLDY    42  37  82 NE9       30.40F
WINSTON-SALEM  PTCLDY    41  34  76 NE6       30.42F
RALEIGH-DURHAM MOCLDY    40  35  83 NE6       30.43F
FORT BRAGG     MOCLDY    45  40  82 NE7       30.40F
FAYETTEVILLE   CLOUDY    46  40  79 NE8       30.39F
CHAPEL HILL    CLEAR     41  36  82 NE7       30.42F
BURLINGTON     CLEAR     41  34  76 NE9       30.42F
LAURINBURG     PTCLDY    45  41  86 NE10      30.39F
$$

NCZ011-015-027-028-043-044-047-080-103-180900-
NORTHEASTERN NORTH CAROLINA

CITY           SKY/WX    TMP DP  RH WIND       PRES   REMARKS
GREENVILLE     PTCLDY    41  37  87 CALM      30.42S
WASHINGTON     PTCLDY    43  38  84 N8        30.41F
ELIZABETH CITY CLOUDY    45  40  82 N12       30.42F
MANTEO         CLOUDY    46  44  92 NE18G25   30.39S
CAPE HATTERAS  CLOUDY    49  47  93 N15G24    30.35S
$$

NCZ078-087-090-091-093-098-101-180900-
SOUTHEASTERN NORTH CAROLINA

CITY           SKY/WX    TMP DP  RH WIND       PRES   REMARKS
LUMBERTON      MOCLDY    48  40  73 NE7       30.38S
GOLDSBORO      MOCLDY    42  40  95 NE6       30.41R
KINSTON        MOCLDY    41  39  91 N5        30.42S
KENANSVILLE    PTCLDY    42  39  89 N7        30.41F
NEW BERN       CLOUDY    46  41  82 N10       30.41S
CHERRY POINT   PTCLDY    46  41  82 N14       30.39S
BEAUFORT       MOCLDY    48  44  86 N16       30.36R
JACKSONVILLE   CLOUDY    44  42  93 N12       30.38S
WILMINGTON     CLEAR     46  40  79 N12       30.36F
$$




USA.gov is the U.S. government's official web portal to all federal, state and local government web resources and services.